FW1786 Weather Reports


Display with metric or nautical units.
time (UTC)temp
F
wind
direction
speed
MPH
gust
MPH
rain 1hr
in
rain 24hr
in
rain mn
in
humidity
%
barometer
mb
20260903030004 82 95 0.0 3.0 0.00 0.00 0.00 67 1015.5
20260903024507 82 111 0.0 1.0 0.00 0.00 0.00 65 1015.6
20260903023004 83 111 0.0 2.0 0.00 0.00 0.00 63 1015.3
20260903021505 84 144 0.0 2.0 0.00 0.00 0.00 62 1015.3
20260903020011 84 228 0.0 2.0 0.00 0.00 0.00 61 1015.1
20260903014511 85 187 0.0 2.0 0.00 0.00 0.00 59 1014.9
20260903013008 86 286 0.0 3.0 0.00 0.00 0.00 57 1014.7
20260903011512 86 268 0.0 1.0 0.00 0.00 0.00 57 1014.6
20260903010007 87 304 1.0 2.0 0.00 0.00 0.00 54 1014.5
20260903004507 88 329 0.0 4.0 0.00 0.00 0.00 52 1014.5
20260903003010 90 250 2.0 5.0 0.00 0.00 0.00 49 1014.4
20260903001516 92 192 2.0 6.0 0.00 0.00 0.00 46 1014.3
20260903000009 93 221 2.0 4.0 0.00 0.00 0.00 43 1014.2
20260902234505 94 208 2.0 5.0 0.00 0.00 0.00 42 1014.2
20260902233005 95 275 2.0 4.0 0.00 0.00 0.00 41 1014.1
20260902231510 95 198 1.0 5.0 0.00 0.00 0.00 40 1014.2
20260902230018 95 211 1.0 4.0 0.00 0.00 0.00 42 1014.2
20260902224528 97 182 2.0 6.0 0.00 0.00 0.00 38 1014.3
20260902223015 97 242 2.0 7.0 0.00 0.00 0.00 38 1014.6
20260902221516 98 275 3.0 8.0 0.00 0.00 0.00 37 1014.5
20260902220008 99 224 3.0 8.0 0.00 0.00 0.00 34 1014.5
20260902214524 99 206 3.0 7.0 0.00 0.00 0.00 35 1014.5
20260902213023 98 179 0.0 8.0 0.00 0.00 0.00 37 1014.6
20260902211508 98 275 1.0 6.0 0.00 0.00 0.00 37 1014.7
20260902210014 99 352 1.0 9.0 0.00 0.00 0.00 37 1014.6
20260902204516 98 230 0.0 7.0 0.00 0.00 0.00 36 1014.9
20260902203009 98 177 1.0 6.0 0.00 0.00 0.00 35 1015.1
20260902201528 99 360 1.0 6.0 0.00 0.00 0.00 34 1015.1
20260902200010 99 237 2.0 6.0 0.00 0.00 0.00 33 1015.4
20260902194523 98 279 1.0 7.0 0.00 0.00 0.00 34 1015.7
20260902193024 98 264 4.0 9.0 0.00 0.00 0.00 36 1015.8
20260902191512 97 300 2.0 5.0 0.00 0.00 0.00 38 1016.0
20260902190017 99 235 1.0 7.0 0.00 0.00 0.00 33 1016.3
20260902184511 99 237 2.0 8.0 0.00 0.00 0.00 35 1016.5
20260902183004 98 304 1.0 9.0 0.00 0.00 0.00 33 1016.7
20260902181504 98 234 2.0 6.0 0.00 0.00 0.00 37 1016.8
20260902180010 97 360 2.0 7.0 0.00 0.00 0.00 38 1017.1
20260902174513 95 61 1.0 4.0 0.00 0.00 0.00 40 1017.3
20260902173017 97 171 1.0 4.0 0.00 0.00 0.00 40 1017.5
20260902171514 95 229 1.0 5.0 0.00 0.00 0.00 40 1017.8
20260902170008 94 213 2.0 9.0 0.00 0.00 0.00 42 1018.0
20260902164507 94 257 2.0 5.0 0.00 0.00 0.00 43 1018.1
20260902163018 93 144 2.0 7.0 0.00 0.00 0.00 44 1018.2
20260902161536 92 202 1.0 5.0 0.00 0.00 0.00 46 1018.3
20260902160018 91 232 1.0 5.0 0.00 0.00 0.00 49 1018.3
20260902154508 90 164 2.0 6.0 0.00 0.00 0.00 48 1018.3
20260902153012 89 185 2.0 7.0 0.00 0.00 0.00 51 1018.4
20260902151506 88 342 1.0 6.0 0.00 0.00 0.00 56 1018.4
20260902150027 86 176 2.0 5.0 0.00 0.00 0.00 57 1018.4
20260902144507 85 217 0.0 4.0 0.00 0.00 0.00 60 1018.4
20260902143015 83 212 1.0 3.0 0.00 0.00 0.00 64 1018.6
20260902141529 81 182 1.0 4.0 0.00 0.00 0.00 69 1018.8
20260902140016 79 165 1.0 4.0 0.00 0.00 0.00 74 1018.9
20260902134512 76 321 0.0 1.0 0.00 0.00 0.00 79 1018.9
20260902133011 75 310 0.0 1.0 0.00 0.00 0.00 81 1018.9
20260902131518 74 310 0.0 1.0 0.00 0.00 0.00 84 1018.7
20260902130013 72 310 0.0 0.0 0.00 0.00 0.00 87 1018.8
20260902124516 71 311 0.0 0.0 0.00 0.00 0.00 89 1018.7
20260902123017 70 311 0.0 1.0 0.00 0.00 0.00 90 1018.6
20260902121512 70 311 0.0 1.0 0.00 0.00 0.00 91 1018.3
20260902120021 70 311 0.0 1.0 0.00 0.00 0.00 90 1018.3
20260902114527 70 311 0.0 0.0 0.00 0.00 0.00 90 1018.1
20260902113026 70 312 0.0 1.0 0.00 0.00 0.00 89 1017.9
20260902111518 70 312 0.0 0.0 0.00 0.00 0.00 89 1017.9
20260902110023 70 312 0.0 1.0 0.00 0.00 0.00 89 1017.7
20260902104536 71 312 0.0 0.0 0.00 0.00 0.00 88 1017.7
20260902103026 71 312 0.0 0.0 0.00 0.00 0.00 87 1017.6
20260902101533 71 312 0.0 1.0 0.00 0.00 0.00 88 1017.5
20260902100004 71 312 0.0 0.0 0.00 0.00 0.00 86 1017.6
20260902094512 71 312 0.0 0.0 0.00 0.00 0.00 89 1017.7
20260902093005 71 312 0.0 1.0 0.00 0.00 0.00 89 1017.5
20260902091506 72 312 0.0 0.0 0.00 0.00 0.00 87 1017.5
20260902090008 71 312 0.0 0.0 0.00 0.00 0.00 88 1017.5
20260902084510 71 312 0.0 0.0 0.00 0.00 0.00 87 1017.5
20260902083010 71 312 0.0 0.0 0.00 0.00 0.00 88 1017.5
20260902081515 71 312 0.0 1.0 0.00 0.00 0.00 88 1017.5
20260902080007 72 312 0.0 0.0 0.00 0.00 0.00 86 1017.4
20260902074516 72 312 0.0 1.0 0.00 0.00 0.00 86 1017.3
20260902073017 72 312 0.0 0.0 0.00 0.00 0.00 86 1017.4
20260902071512 73 312 0.0 1.0 0.00 0.00 0.00 84 1017.6
20260902070022 73 312 0.0 1.0 0.00 0.00 0.00 84 1017.5
20260902064514 73 312 0.0 1.0 0.00 0.00 0.00 83 1017.4
20260902063013 73 312 0.0 1.0 0.00 0.00 0.00 83 1017.5
20260902061506 74 312 0.0 1.0 0.00 0.00 0.00 83 1017.3
20260902060018 74 317 0.0 1.0 0.00 0.00 0.00 81 1017.5
20260902054519 75 23 0.0 1.0 0.00 0.00 0.00 80 1017.5
20260902053032 75 23 0.0 1.0 0.00 0.00 0.00 80 1017.4
20260902051519 75 21 0.0 2.0 0.00 0.00 0.00 79 1017.3
20260902050012 75 311 0.0 2.0 0.00 0.00 0.00 78 1017.3
20260902044518 76 360 0.0 3.0 0.00 0.00 0.00 76 1017.1
20260902043028 76 352 0.0 2.0 0.00 0.00 0.00 76 1017.0
20260902041529 77 348 0.0 2.0 0.00 0.00 0.00 75 1017.0
20260902040024 77 29 0.0 1.0 0.00 0.00 0.00 74 1016.9
20260902034515 78 37 0.0 1.0 0.00 0.00 0.00 73 1017.0
20260902033020 79 39 0.0 1.0 0.00 0.00 0.00 69 1016.8
20260902031511 80 61 0.0 2.0 0.00 0.00 0.00 67 1016.6